Weather History for Marianna, FL

Change the Weather History Date:

Monday, February 4, 2013

  Actual Average Record
Temperature  
Mean Temperature 51 °F 52 °F  
Max Temperature 64 °F 64 °F 79 °F (2008)
Min Temperature 38 °F 41 °F 26 °F (2009)
Degree Days  
Heating Degree Days 14    
Month to date heating degree days 59  
Since 1 July heating degree days 785  
Cooling Degree Days 0    
Month to date cooling degree days 0  
Year to date cooling degree days 53  
Moisture  
Dew Point 38 °F    
Average Humidity 62    
Maximum Humidity 92    
Minimum Humidity 31    
Precipitation  
Precipitation 0.00 in 0.16 in 1.12 in (2011)
Month to date precipitation T 0.67  
Year to date precipitation 0.96 5.71  
Sea Level Pressure  
Sea Level Pressure 30.08 in    
Wind  
Wind Speed 2 mph (South)    
Max Wind Speed 12 mph    
Max Gust Speed 14 mph    
Visibility 10 miles    
Events      
T = Trace of Precipitation, MM = Missing Value Source: NWS Daily Summary

Daily Weather History Graph

Daily Weather History Graph

Search for Another Location

Airport:

Trip Planner

Search our weather history database for the weather conditions in past years. The results will help you decide how hot, cold, wet, or windy it might be!

Date:

Astronomy

Feb. 04, 2013 Rise Set
Actual Time 6:30 AM CST 5:19 PM CST
Civil Twilight 6:05 AM CST 5:44 PM CST
Nautical Twilight 5:36 AM CST 6:13 PM CST
Astronomical Twilight 5:07 AM CST 6:41 PM CST
Moon 1:00 AM CST (2/4) 11:48 AM CST (2/4)
Length of Visible Light 11h 39m
Length of Day
10h 49m
Last Quarter, 37% of the Moon is Illuminated
Feb 4
Last Quarter
Feb 10
New
Feb 17
First Quarter
Feb 25
Full
Mar 4
Last Quarter

Hourly Weather History & Observations

Time (CST) Temp. Windchill Dew Point Humidity Pressure Visibility Wind Dir Wind Speed Gust Speed Precip Events Conditions
12:53 AM 39.0 °F - 35.1 °F 86% 30.11 in 10.0 mi Calm Calm - N/A   Clear
1:53 AM 39.9 °F - 36.0 °F 86% 30.09 in 10.0 mi Calm Calm - N/A   Clear
2:53 AM 37.9 °F - 35.1 °F 89% 30.10 in 10.0 mi Calm Calm - N/A   Clear
4:53 AM 39.0 °F - 36.0 °F 89% 30.10 in 10.0 mi Calm Calm - N/A   Clear
5:53 AM 39.0 °F - 36.0 °F 89% 30.11 in 10.0 mi Calm Calm - N/A   Clear
6:53 AM 37.9 °F - 35.1 °F 89% 30.12 in 10.0 mi Calm Calm - N/A   Clear
7:53 AM 43.0 °F 41.3 °F 37.0 °F 80% 30.12 in 10.0 mi ENE 3.5 mph - N/A   Clear
8:53 AM 48.0 °F - 36.0 °F 63% 30.13 in 10.0 mi East 4.6 mph - N/A   Clear
9:53 AM 54.0 °F - 32.0 °F 43% 30.13 in 10.0 mi East 8.1 mph - N/A   Clear
10:53 AM 57.0 °F - 34.0 °F 42% 30.12 in 10.0 mi SSE 4.6 mph - N/A   Clear
11:53 AM 61.0 °F - 35.1 °F 38% 30.11 in 10.0 mi Calm Calm - N/A   Clear
12:53 PM 62.1 °F - 34.0 °F 35% 30.08 in 10.0 mi SW 3.5 mph - N/A   Clear
1:53 PM 63.0 °F - 35.1 °F 35% 30.07 in 10.0 mi NW 3.5 mph - N/A   Clear
2:53 PM 63.0 °F - 35.1 °F 35% 30.04 in 10.0 mi Calm Calm - N/A   Clear
3:53 PM 64.0 °F - 34.0 °F 33% 30.04 in 10.0 mi SW 9.2 mph - N/A   Clear
4:53 PM 62.1 °F - 37.0 °F 39% 30.04 in 10.0 mi SW 4.6 mph - N/A   Clear
5:53 PM 57.9 °F - 41.0 °F 53% 30.05 in 10.0 mi Calm Calm - N/A   Clear
6:53 PM 55.0 °F - 43.0 °F 64% 30.05 in 10.0 mi South 3.5 mph - N/A   Clear
7:53 PM 57.0 °F - 43.0 °F 59% 30.05 in 10.0 mi Calm Calm - N/A   Clear
8:53 PM 52.0 °F - 44.1 °F 74% 30.04 in 10.0 mi Calm Calm - N/A   Scattered Clouds
9:53 PM 53.1 °F - 44.1 °F 71% 30.04 in 10.0 mi Calm Calm - N/A   Partly Cloudy
10:53 PM 48.9 °F - 43.0 °F 80% 30.03 in 10.0 mi Calm Calm - N/A   Clear
11:53 PM 48.0 °F - 43.0 °F 83% 30.02 in 10.0 mi Calm Calm - N/A   Clear